Location: Home
(42.5358°N, 72.7383°W)
Time: 20:42:23
(UTC-05:00)

Altair - Pass Details

Date: 12 December 2021
Orbit: 1501 x 1683 km, 47.2° (Epoch: 26 January)

Event Time Altitude Azimuth Distance (km) Brightness Sun altitude
Rises 19:07:16 0° 296° (WNW) 4,710 10.9 -30.2°
Reaches altitude 10° 19:10:23 10° 293° (WNW) 3,705 10.2 -30.8°
Maximum altitude 19:19:27 60° 216° (SW) 1,692 7.7 -32.5°
Enters shadow 19:22:41 41° 159° (SSE) 2,058 7.9 -33.1°
